Regional Weather Roundup
Issued by NWS

Home | Current Version | Previous Version | Text Only | Print | Product List | Glossary Off
Versions: 1 2 3 4 5 6 7 8 9 10 11 12 13 14 15 16 17 18 19 20 21 22 23 24 25 26 27 28

000
ASUS45 KBOI 241710
RWRID
WEATHER ROUNDUP FOR IDAHO
NATIONAL WEATHER SERVICE BOISE ID
1100 AM MDT FRI OCT 24 2014

NOTE: "FAIR" INDICATES FEW OR NO CLOUDS BELOW 12000 FEET
WITH NO SIGNIFICANT WEATHER AND/OR OBSTRUCTIONS TO VISIBILITY

IDZ012-014-241800-
SOUTHWEST IDAHO


CITY           SKY/WX    TMP DP  RH WIND       PRES   REMARKS
BOISE          CLOUDY    54  49  83 CALM      30.11S
CALDWELL       CLOUDY    54  45  71 CALM      30.13S
MOUNTAIN HOME  CLOUDY    55  55  98 CALM      30.11S
$$

IDZ016-017-241800-
SOUTHCENTRAL IDAHO


CITY           SKY/WX    TMP DP  RH WIND       PRES   REMARKS
BURLEY         SUNNY     58  41  53 NE6       30.12S
JEROME         SUNNY     60  40  47 NE7       30.13R
TWIN FALLS     SUNNY     60  40  47 NE8       30.12S
$$

IDZ019>023-241800-
SOUTHEAST IDAHO


CITY           SKY/WX    TMP DP  RH WIND       PRES   REMARKS
IDAHO FALLS    PTSUNNY   58  40  51 SW9       30.16F
POCATELLO      SUNNY     61  39  44 CALM      30.16S
REXBURG        PTSUNNY   55  38  52 SW7       30.17R
$$

IDZ006-010-011-018-031-032-241800-
CENTRAL IDAHO MOUNTAINS


CITY           SKY/WX    TMP DP  RH WIND       PRES   REMARKS
MCCALL         LGT RAIN  42  39  89 N5        30.13R
HAILEY         PTSUNNY   50  45  81 NW7       30.19R
STANLEY          N/A     44  40  85 CALM      30.18R
SALMON         CLOUDY    48  45  87 N3        30.13R
CHALLIS        CLOUDY    47  42  83 CALM      30.13R
$$

IDZ002-004-006-007-026-241800-
NORTHERN IDAHO


CITY           SKY/WX    TMP DP  RH WIND       PRES   REMARKS
LEWISTON       CLOUDY    52  49  89 E6        30.11R
LOWELL           N/A     50  48  93 CALM      30.17R
COEUR D`ALENE  CLOUDY    46  43  87 S6        30.10S
MULLAN PASS      N/A     35  32  88 VRB3      30.10R
$$



USA.gov is the U.S. government's official web portal to all federal, state and local government web resources and services.